TimePST,TemperatureF,Dew PointF,Humidity,Sea Level PressureIn,VisibilityMPH,Wind Direction,Wind SpeedMPH,Gust SpeedMPH,PrecipitationIn,Events,Conditions,WindDirDegrees,DateUTC
12:15 AM,35.6,35.6,100,30.18,10.0,East,6.9,-,N/A,,Mostly Cloudy,80,2013-02-08 08:15:00
12:35 AM,35.6,35.6,100,30.18,10.0,East,5.8,-,N/A,,Scattered Clouds,100,2013-02-08 08:35:00
12:55 AM,33.8,33.8,100,30.18,10.0,East,4.6,-,N/A,,Clear,80,2013-02-08 08:55:00
1:15 AM,35.6,33.8,93,30.19,0.8,East,4.6,-,N/A,,Overcast,80,2013-02-08 09:15:00
1:35 AM,33.8,33.8,100,30.19,0.8,Calm,Calm,-,N/A,,Overcast,0,2013-02-08 09:35:00
1:55 AM,33.8,33.8,100,30.20,1.2,ENE,6.9,-,N/A,,Mostly Cloudy,60,2013-02-08 09:55:00
2:15 AM,33.8,33.8,100,30.20,1.2,East,8.1,-,N/A,,Mostly Cloudy,80,2013-02-08 10:15:00
2:35 AM,33.8,33.8,100,30.20,1.0,ENE,6.9,-,N/A,,Mostly Cloudy,70,2013-02-08 10:35:00
2:55 AM,33.8,33.8,100,30.21,1.8,Calm,Calm,-,N/A,,Mostly Cloudy,0,2013-02-08 10:55:00
3:15 AM,33.8,33.8,100,30.21,0.5,ESE,3.5,-,N/A,Fog,Fog,110,2013-02-08 11:15:00
3:55 AM,33.8,33.8,100,30.21,7.0,East,4.6,-,N/A,,Clear,90,2013-02-08 11:55:00
4:15 AM,32.0,32.0,100,30.22,10.0,East,6.9,-,N/A,,Clear,90,2013-02-08 12:15:00
4:35 AM,32.0,32.0,100,30.22,4.0,Calm,Calm,-,N/A,,Scattered Clouds,0,2013-02-08 12:35:00
4:55 AM,32.0,32.0,100,30.24,1.0,Calm,Calm,-,N/A,,Mostly Cloudy,0,2013-02-08 12:55:00
5:15 AM,32.0,32.0,100,30.25,0.5,East,3.5,-,N/A,Fog,Fog,100,2013-02-08 13:15:00
5:35 AM,32.0,32.0,100,30.26,5.0,East,4.6,-,N/A,,Scattered Clouds,90,2013-02-08 13:35:00
5:55 AM,32.0,32.0,100,30.26,1.5,East,5.8,-,N/A,,Mist,90,2013-02-08 13:55:00
6:15 AM,32.0,32.0,100,30.25,1.8,East,6.9,-,N/A,,Mist,90,2013-02-08 14:15:00
6:35 AM,32.0,32.0,100,30.25,0.8,East,5.8,-,N/A,,Mostly Cloudy,80,2013-02-08 14:35:00
6:55 AM,32.0,32.0,100,30.26,2.0,Calm,Calm,-,N/A,,Scattered Clouds,0,2013-02-08 14:55:00
7:15 AM,32.0,32.0,100,30.27,7.0,Calm,Calm,-,N/A,,Clear,0,2013-02-08 15:15:00
7:35 AM,32.0,32.0,100,30.27,5.0,Calm,Calm,-,N/A,,Clear,0,2013-02-08 15:35:00
7:55 AM,32.0,32.0,100,30.28,1.5,Calm,Calm,-,N/A,,Scattered Clouds,0,2013-02-08 15:55:00
8:15 AM,32.0,32.0,100,30.29,10.0,Calm,Calm,-,N/A,,Clear,0,2013-02-08 16:15:00
8:35 AM,32.0,32.0,100,30.29,7.0,East,3.5,-,N/A,,Clear,90,2013-02-08 16:35:00
8:55 AM,33.8,33.8,100,30.29,7.0,ENE,5.8,-,N/A,,Clear,70,2013-02-08 16:55:00
9:15 AM,33.8,33.8,100,30.29,7.0,East,6.9,-,N/A,,Clear,90,2013-02-08 17:15:00
9:35 AM,35.6,35.6,100,30.30,10.0,East,3.5,-,N/A,,Clear,80,2013-02-08 17:35:00
9:55 AM,37.4,37.4,100,30.30,10.0,ENE,3.5,-,N/A,,Clear,70,2013-02-08 17:55:00
10:15 AM,41.0,39.2,93,30.30,10.0,NE,4.6,-,N/A,,Clear,50,2013-02-08 18:15:00
10:35 AM,41.0,41.0,100,30.31,7.0,NE,3.5,-,N/A,,Clear,40,2013-02-08 18:35:00
10:55 AM,42.8,41.0,93,30.32,7.0,NNW,3.5,-,N/A,,Clear,340,2013-02-08 18:55:00
11:15 AM,44.6,41.0,87,30.32,5.0,North,5.8,-,N/A,,Clear,360,2013-02-08 19:15:00
11:35 AM,44.6,41.0,87,30.32,7.0,North,9.2,17.3,N/A,,Clear,360,2013-02-08 19:35:00
11:55 AM,44.6,41.0,87,30.31,7.0,North,13.8,18.4,N/A,,Clear,350,2013-02-08 19:55:00
12:15 PM,46.4,41.0,81,30.30,7.0,NNW,12.7,19.6,N/A,,Clear,340,2013-02-08 20:15:00
12:35 PM,46.4,41.0,81,30.30,10.0,North,13.8,23.0,N/A,,Clear,350,2013-02-08 20:35:00
12:55 PM,46.4,41.0,81,30.30,10.0,NNW,16.1,23.0,N/A,,Clear,340,2013-02-08 20:55:00
1:15 PM,46.4,39.2,76,30.30,10.0,NNW,17.3,21.9,N/A,,Clear,340,2013-02-08 21:15:00
1:35 PM,46.4,41.0,81,30.29,10.0,NNW,11.5,18.4,N/A,,Clear,340,2013-02-08 21:35:00
1:55 PM,46.4,41.0,81,30.30,10.0,NNW,13.8,20.7,N/A,,Clear,330,2013-02-08 21:55:00
2:15 PM,46.4,41.0,81,30.29,10.0,NNW,13.8,18.4,N/A,,Clear,330,2013-02-08 22:15:00
2:35 PM,46.4,39.2,76,30.29,10.0,North,13.8,20.7,N/A,,Clear,350,2013-02-08 22:35:00
2:55 PM,46.4,37.4,71,30.29,10.0,North,16.1,20.7,N/A,,Clear,350,2013-02-08 22:55:00
3:15 PM,46.4,37.4,71,30.29,10.0,North,17.3,24.2,N/A,,Clear,350,2013-02-08 23:15:00
3:35 PM,46.4,37.4,71,30.30,10.0,North,16.1,21.9,N/A,,Clear,350,2013-02-08 23:35:00
3:55 PM,44.6,37.4,76,30.30,10.0,North,11.5,24.2,N/A,,Clear,360,2013-02-08 23:55:00
4:15 PM,44.6,37.4,76,30.30,10.0,North,15.0,18.4,N/A,,Clear,350,2013-02-09 00:15:00
4:35 PM,44.6,37.4,76,30.30,10.0,North,12.7,20.7,N/A,,Scattered Clouds,360,2013-02-09 00:35:00
4:55 PM,44.6,37.4,76,30.30,10.0,North,13.8,23.0,N/A,,Scattered Clouds,360,2013-02-09 00:55:00
5:15 PM,44.6,37.4,76,30.30,10.0,North,11.5,19.6,N/A,,Scattered Clouds,360,2013-02-09 01:15:00
5:35 PM,42.8,37.4,81,30.30,10.0,NNE,6.9,17.3,N/A,,Mostly Cloudy,20,2013-02-09 01:35:00
5:55 PM,42.8,35.6,76,30.30,10.0,NNE,6.9,-,N/A,,Scattered Clouds,20,2013-02-09 01:55:00
6:15 PM,41.0,35.6,81,30.31,10.0,NNE,5.8,-,N/A,,Clear,20,2013-02-09 02:15:00
6:35 PM,41.0,35.6,81,30.31,10.0,NNE,4.6,-,N/A,,Clear,30,2013-02-09 02:35:00
6:55 PM,41.0,35.6,81,30.31,10.0,NNE,3.5,-,N/A,,Clear,20,2013-02-09 02:55:00
7:15 PM,41.0,35.6,81,30.31,10.0,NNE,4.6,-,N/A,,Clear,20,2013-02-09 03:15:00
7:35 PM,41.0,35.6,81,30.31,10.0,NNE,5.8,-,N/A,,Clear,20,2013-02-09 03:35:00
7:55 PM,41.0,35.6,81,30.31,10.0,NNE,3.5,-,N/A,,Clear,30,2013-02-09 03:55:00
8:15 PM,39.2,35.6,87,30.31,10.0,Calm,Calm,-,N/A,,Clear,0,2013-02-09 04:15:00
8:35 PM,35.6,33.8,93,30.32,10.0,Calm,Calm,-,N/A,,Clear,0,2013-02-09 04:35:00
8:55 PM,33.8,33.8,100,30.32,10.0,Calm,Calm,-,N/A,,Clear,0,2013-02-09 04:55:00
9:15 PM,33.8,32.0,93,30.32,10.0,East,3.5,-,N/A,,Clear,100,2013-02-09 05:15:00
9:35 PM,33.8,32.0,93,30.32,10.0,Calm,Calm,-,N/A,,Scattered Clouds,0,2013-02-09 05:35:00
9:55 PM,33.8,33.8,100,30.32,10.0,Calm,Calm,-,N/A,,Overcast,0,2013-02-09 05:55:00
10:15 PM,35.6,33.8,93,30.32,10.0,East,3.5,-,N/A,,Overcast,80,2013-02-09 06:15:00
10:35 PM,35.6,35.6,100,30.32,10.0,East,3.5,-,N/A,,Overcast,90,2013-02-09 06:35:00
10:55 PM,35.6,35.6,100,30.32,10.0,Calm,Calm,-,N/A,,Mostly Cloudy,0,2013-02-09 06:55:00
11:15 PM,35.6,33.8,93,30.32,10.0,Calm,Calm,-,N/A,,Scattered Clouds,0,2013-02-09 07:15:00
11:35 PM,35.6,33.8,93,30.32,10.0,Calm,Calm,-,N/A,,Overcast,0,2013-02-09 07:35:00
11:55 PM,35.6,35.6,100,30.32,10.0,Calm,Calm,-,N/A,,Overcast,0,2013-02-09 07:55:00